Elizabethtown, NC

6:07 PM EDT on April 26, 2017 (GMT -0400)
Elizabethtown

Weather History for KEYF - January, 2013

Change the Weather History Date:

Thursday, January 10, 2013

  Actual Average (KILM) Record (KILM)
Temperature  
Mean Temperature 60 °F -  
Max Temperature 70 °F 53 °F 80 °F (1974)
Min Temperature 50 °F 35 °F 9 °F (1982)
Degree Days  
Heating Degree Days 5    
Growing Degree Days 10 (Base 50)    
Moisture  
Dew Point 49 °F    
Average Humidity 73    
Maximum Humidity 100    
Minimum Humidity 50    
Precipitation  
Precipitation 0.00 in - - ()
Sea Level Pressure  
Sea Level Pressure 30.44 in    
Wind  
Wind Speed 2 mph (ENE)    
Max Wind Speed 7 mph    
Max Gust Speed -    
Visibility 9 miles    
Events Fog    
Averages and records for this station are not official NWS values.
T = Trace of Precipitation, MM = Missing Value Source: NWS Daily Summary

Daily Weather History Graph

Daily Weather History Graph

Search for Another Location

Airport or City:

Trip Planner

Search our weather history database for the weather conditions in past years. The results will help you decide how hot, cold, wet, or windy it might be!

Date:

Astronomy

Jan. 10, 2013 Rise Set
Actual Time 7:20 AM EST 5:21 PM EST
Civil Twilight 6:53 AM EST 5:49 PM EST
Nautical Twilight 6:22 AM EST 6:20 PM EST
Astronomical Twilight 5:51 AM EST 6:50 PM EST
Moon 5:59 AM EST (1/10) 4:26 PM EST (1/10)
Length of Visible Light 10h 55m
Length of Day
10h 00m
Waning Crescent, 2% of the Moon is Illuminated
Jan 10
Waning Crescent
Jan 11
New
Jan 18
First Quarter
Jan 26
Full
Feb 3
Last Quarter

Hourly Weather History & Observations

Time (EST) Temp. Dew Point Humidity Pressure Visibility Wind Dir Wind Speed Gust Speed Precip Events Conditions
12:15 AM 55.0 °F 54.5 °F 98% 30.41 in 7.0 mi Calm Calm - N/A   Clear
12:35 AM 56.3 °F 55.9 °F 99% 30.41 in 10.0 mi Calm Calm - N/A   Clear
12:55 AM 55.6 °F 55.0 °F 98% 30.42 in 10.0 mi Calm Calm - N/A   Clear
1:15 AM 54.5 °F 53.8 °F 97% 30.42 in 7.0 mi Calm Calm - N/A   Clear
1:35 AM 54.9 °F 54.5 °F 99% 30.41 in 10.0 mi Calm Calm - N/A   Clear
1:55 AM 54.9 °F 54.5 °F 99% 30.42 in 10.0 mi Calm Calm - N/A   Clear
3:15 AM 52.9 °F 52.5 °F 99% 30.42 in 7.0 mi Calm Calm - N/A   Clear
3:35 AM 52.3 °F 52.2 °F 99% 30.43 in 7.0 mi Calm Calm - N/A   Clear
3:55 AM 52.9 °F 52.7 °F 99% 30.42 in 7.0 mi Calm Calm - N/A   Clear
4:15 AM 52.9 °F 52.7 °F 99% 30.42 in 7.0 mi Calm Calm - N/A   Clear
4:35 AM 51.1 °F 50.9 °F 99% 30.42 in 1.2 mi Calm Calm - N/A   Mist
4:55 AM 51.8 °F 51.6 °F 99% 30.42 in 4.0 mi Calm Calm - N/A   Clear
5:15 AM 50.9 °F 50.9 °F 100% 30.42 in 0.5 mi Calm Calm - N/A Fog Fog
5:35 AM 50.7 °F 50.7 °F 100% 30.43 in 3.0 mi Calm Calm - N/A   Clear
5:55 AM 50.5 °F 50.5 °F 100% 30.43 in 3.0 mi Calm Calm - N/A   Clear
6:15 AM 50.2 °F 50.2 °F 100% 30.44 in 3.0 mi Calm Calm - N/A   Clear
6:35 AM 50.5 °F 50.5 °F 100% 30.45 in 2.5 mi Calm Calm - N/A   Clear
7:15 AM 50.7 °F 50.7 °F 100% 30.47 in 4.0 mi Calm Calm - N/A   Clear
7:35 AM 50.4 °F 50.4 °F 100% 30.47 in 4.0 mi Calm Calm - N/A   Clear
7:55 AM 50.9 °F 50.9 °F 100% 30.49 in 5.0 mi Calm Calm - N/A   Clear
8:35 AM 53.1 °F 53.1 °F 100% 30.49 in 10.0 mi Calm Calm - N/A   Clear
8:55 AM 55.2 °F 53.8 °F 95% 30.50 in 10.0 mi Calm Calm - N/A   Clear
9:15 AM 57.7 °F 52.2 °F 82% 30.50 in 10.0 mi NNE 3.5 mph - N/A   Clear
9:35 AM 60.8 °F 50.7 °F 69% 30.50 in 10.0 mi NE 4.6 mph - N/A   Clear
9:55 AM 61.5 °F 49.5 °F 65% 30.50 in 10.0 mi NE 3.5 mph - N/A   Clear
10:15 AM 62.8 °F 48.7 °F 60% 30.50 in 10.0 mi NE 5.8 mph - N/A   Clear
10:35 AM 63.5 °F 47.5 °F 56% 30.50 in 10.0 mi NNE 4.6 mph - N/A   Clear
10:55 AM 64.4 °F 48.4 °F 56% 30.48 in 10.0 mi East 4.6 mph - N/A   Clear
11:15 AM 66.0 °F 49.3 °F 55% 30.48 in 10.0 mi East 5.8 mph - N/A   Clear
11:35 AM 66.2 °F 49.1 °F 54% 30.47 in 10.0 mi ENE 4.6 mph - N/A   Clear
11:55 AM 66.2 °F 49.3 °F 54% 30.45 in 10.0 mi NE 4.6 mph - N/A   Clear
12:15 PM 67.1 °F 49.5 °F 53% 30.44 in 10.0 mi NE 4.6 mph - N/A   Clear
12:55 PM 67.1 °F 49.3 °F 53% 30.43 in 10.0 mi ENE 4.6 mph - N/A   Clear
1:15 PM 68.0 °F 49.6 °F 52% 30.43 in 10.0 mi North 3.5 mph - N/A   Clear
1:35 PM 68.0 °F 49.6 °F 52% 30.42 in 10.0 mi NE 3.5 mph - N/A   Clear
1:55 PM 68.7 °F 50.2 °F 52% 30.42 in 10.0 mi NNE 4.6 mph - N/A   Clear
2:15 PM 69.4 °F 50.4 °F 51% 30.42 in 10.0 mi NNE 5.8 mph - N/A   Clear
2:35 PM 70.0 °F 50.7 °F 50% 30.43 in 10.0 mi North 4.6 mph - N/A   Clear
3:15 PM 69.4 °F 51.3 °F 52% 30.43 in 10.0 mi ENE 3.5 mph - N/A   Clear
3:35 PM 69.3 °F 51.8 °F 54% 30.43 in 10.0 mi East 3.5 mph - N/A   Clear
3:55 PM 68.7 °F 52.0 °F 55% 30.43 in 10.0 mi ESE 5.8 mph - N/A   Clear
4:15 PM 68.5 °F 52.2 °F 56% 30.43 in 10.0 mi East 4.6 mph - N/A   Clear
4:35 PM 68.0 °F 52.2 °F 57% 30.43 in 10.0 mi ESE 4.6 mph - N/A   Clear
4:55 PM 66.4 °F 52.3 °F 61% 30.43 in 10.0 mi East 3.5 mph - N/A   Clear
5:15 PM 66.2 °F 53.1 °F 63% 30.43 in 10.0 mi East 3.5 mph - N/A   Clear
5:35 PM 64.2 °F 52.5 °F 66% 30.44 in 10.0 mi SE 4.6 mph - N/A   Clear
5:55 PM 62.6 °F 51.8 °F 68% 30.44 in 10.0 mi Calm Calm - N/A   Clear
6:15 PM 61.3 °F 50.4 °F 67% 30.44 in 10.0 mi Calm Calm - N/A   Clear
6:35 PM 60.8 °F 50.0 °F 68% 30.45 in 10.0 mi Calm Calm - N/A   Clear
6:55 PM 58.1 °F 49.6 °F 73% 30.45 in 10.0 mi Calm Calm - N/A   Clear
7:15 PM 56.3 °F 48.9 °F 76% 30.45 in 10.0 mi Calm Calm - N/A   Scattered Clouds
7:35 PM 56.3 °F 48.6 °F 75% 30.45 in 10.0 mi Calm Calm - N/A   Clear
7:55 PM 55.9 °F 48.2 °F 75% 30.45 in 10.0 mi ENE 3.5 mph - N/A   Clear
8:15 PM 56.5 °F 47.5 °F 72% 30.44 in 10.0 mi East 3.5 mph - N/A   Scattered Clouds
8:35 PM 56.5 °F 45.5 °F 67% 30.44 in 10.0 mi East 4.6 mph - N/A   Overcast
8:55 PM 56.3 °F 43.5 °F 62% 30.44 in 10.0 mi East 4.6 mph - N/A   Overcast
9:15 PM 55.6 °F 41.4 °F 59% 30.44 in 10.0 mi East 5.8 mph - N/A   Overcast
9:35 PM 55.4 °F 40.8 °F 58% 30.44 in 10.0 mi East 4.6 mph - N/A   Overcast
9:55 PM 54.9 °F 39.9 °F 57% 30.44 in 10.0 mi East 4.6 mph - N/A   Overcast
10:15 PM 54.5 °F 38.3 °F 54% 30.43 in 10.0 mi East 4.6 mph - N/A   Overcast
10:35 PM 54.0 °F 37.0 °F 53% 30.43 in 10.0 mi East 6.9 mph - N/A   Overcast
10:55 PM 53.8 °F 36.9 °F 53% 30.42 in 10.0 mi ENE 4.6 mph - N/A   Overcast
11:15 PM 53.2 °F 36.9 °F 54% 30.43 in 10.0 mi ENE 3.5 mph - N/A   Overcast
11:35 PM 53.1 °F 37.4 °F 55% 30.43 in 10.0 mi Calm Calm - N/A   Overcast
11:55 PM 52.9 °F 36.9 °F 55% 30.42 in 10.0 mi ENE 5.8 mph - N/A   Overcast